Home   Weather   Lanchow   Past weeks

Flag for China Past Weather in Lanchow, Gansu, China — Yesterday and Last 2 Weeks

Now
66 °F

Sunny.


Feels Like: 66 °F
Forecast: 40 / 68 °F
Wind: 3 mph from North

Location: Lanzhou / Zhongchuan

Current Time: Apr 23, 2017 at 1:45:35 pm

Latest Report: Apr 23, 2017 at 1:00 pm


Visibility: 10 mi

Pressure: 30.01 "Hg (25.09 "Hg at 1531m altitude)

Humidity: 13%

Dew Point: 14 °F

Location of LanchowLocation

Past Weather in Lanchow — Graph

°F

Lanchow Temperature Yesterday

Maximum temperature yesterday: 64 °F (at 2:00 pm)
Minimum temperature yesterday: 30 °F (at 5:00 am)
Average temperature yesterday: 51 °F

High & Low Weather Summary for the Past Weeks

 TemperatureHumidityPressure
High72 °F (Apr 17, 3:00 pm)100% (Apr 9, 12:00 am)30.33 "Hg (Apr 9, 12:00 am)
Low27 °F (Apr 21, 4:00 am)9% (Apr 21, 7:00 pm)29.80 "Hg (Apr 18, 4:00 pm)
Average45 °F58%30.09 "Hg
* Reported Apr 8 12:00 pm — Apr 23 12:00 pm, Lanchow, Weather by CustomWeather, © 2017

Note: Actual official high and low records may vary slightly from our data, if they occured in-between our weather recording intervals... More about our weather records

Advertising

Lanchow Weather History for the Previous 24 Hours

Scroll right to see more
 ConditionsComfort  
Time TempWeatherWind HumidityBarometerVisibility
12:00 pm
Sun, Apr 23
64 °FSunny.6 mph14%30.01 "Hg10 mi
11:00 am63 °FPassing clouds.6 mph15%30.04 "HgN/A
10:00 am61 °FSunny.1 mph13%30.04 "Hg10 mi
9:00 am55 °FPassing clouds.3 mph19%30.04 "HgN/A
8:00 am46 °FSunny.8 mph34%30.04 "Hg10 mi
7:00 am37 °FClear.6 mph52%30.04 "Hg10 mi
6:00 am37 °FClear.1 mph45%30.01 "Hg10 mi
5:00 am43 °FClear.6 mph42%30.01 "Hg10 mi
4:00 am45 °FClear.3 mph37%30.01 "Hg10 mi
2:00 am46 °FClear.3 mph34%30.04 "Hg10 mi
1:00 am46 °FClear.3 mph37%30.07 "Hg10 mi
12:00 am45 °FClear.6 mph42%30.07 "Hg10 mi
11:00 pm
Sat, Apr 22
50 °FClear.3 mph30%30.07 "Hg10 mi
10:00 pm54 °FClear.1 mph24%30.07 "Hg10 mi
9:00 pm57 °FClear.6 mph17%30.07 "Hg10 mi
8:00 pm59 °FPassing clouds.3 mph14%30.01 "HgN/A
7:00 pm61 °FSunny.8 mph13%29.98 "Hg10 mi
6:00 pm63 °FPassing clouds.6 mph14%29.98 "HgN/A
5:00 pm64 °FPassing clouds.3 mph13%29.98 "HgN/A
4:00 pm63 °FPassing clouds.15 mph14%29.98 "HgN/A
3:00 pm64 °FScattered clouds.8 mph12%29.98 "HgN/A
2:00 pm64 °FScattered clouds.3 mph14%29.98 "HgN/A
1:00 pm63 °FScattered clouds.10 mph19%30.01 "HgN/A
Weather by CustomWeather, © 2017

See weather overviewHow to use our weather pages